This is the latest recevied weather packets stored in our database for station/object 9W8AKN-L. If no packets are shown the sender has not sent any weather packets the latest 1 day(s).
| Time | Temp. | Humidity | Pressure | Rain* | Wind** | Luminosity | Snow |
|---|---|---|---|---|---|---|---|
| 1777834944 | 27.78° C | 88% | 1009.2 hPa | - | - | - | - |
| 1777834044 | 28.33° C | 88% | 1009.7 hPa | - | - | - | - |
| 1777833144 | 28.33° C | 87% | 1009.6 hPa | - | - | - | - |
| 1777832244 | 28.33° C | 87% | 1009.6 hPa | - | - | - | - |
| 1777831343 | 28.33° C | 87% | 1009.4 hPa | - | - | - | - |
| 1777830443 | 28.89° C | 86% | 1009.6 hPa | - | - | - | - |
| 1777829543 | 28.89° C | 81% | 1009.5 hPa | - | - | - | - |
| 1777828643 | 28.89° C | 80% | 1009.6 hPa | - | - | - | - |
| 1777827743 | 28.89° C | 79% | 1009.5 hPa | - | - | - | - |
| 1777826843 | 28.89° C | 79% | 1009.4 hPa | - | - | - | - |
| 1777825943 | 28.89° C | 75% | 1009.4 hPa | - | - | - | - |
| 1777825043 | 28.89° C | 74% | 1009.5 hPa | - | - | - | - |
| 1777824143 | 28.89° C | 73% | 1009.5 hPa | - | - | - | - |
| 1777823243 | 29.44° C | 72% | 1009.5 hPa | - | - | - | - |
| 1777822342 | 29.44° C | 71% | 1009.7 hPa | - | - | - | - |
| 1777821442 | 29.44° C | 69% | 1009.6 hPa | - | - | - | - |
| 1777820542 | 28.89° C | 67% | 1009.8 hPa | - | - | - | - |
| 1777819642 | 29.44° C | 64% | 1009.6 hPa | - | - | - | - |
| 1777817845 | 28.89° C | 60% | 1009.5 hPa | - | - | - | - |
| 1777816945 | 28.89° C | 59% | 1009.3 hPa | - | - | - | - |
| 1777816045 | 28.89° C | 59% | 1009.2 hPa | - | - | - | - |
| 1777815145 | 28.89° C | 58% | 1009.2 hPa | - | - | - | - |
| 1777814245 | 29.44° C | 58% | 1008.9 hPa | - | - | - | - |
| 1777813345 | 28.89° C | 58% | 1008.6 hPa | - | - | - | - |
| 1777812445 | 29.44° C | 58% | 1008.3 hPa | - | - | - | - |
* Rain since midnight (hover to see other rain measurements)
** Current wind speed in m/s (hover to see current wind gust speed)